Volver al catálogo

SL-8 R/B

ActivoPO
NORAD 22488·ROCKET BODY·🇷🇺 Russia

Lanzado Feb 9, 1993 desde Plesetsk Cosmodrome

Loading…

Próximos Pases (próximas 24 horas)

TLE

ActualizadoSource: Space-Track

Época: Sep 14, 2026, 12:44 UTC

1 22488U 93008B   26257.53056667 -.00000063  00000-0 -78187-4 0  9990
2 22488  82.9378  85.4180 0026367 120.3006 257.3896 13.78013983688909

Sigue SL-8 R/B en tiempo real con AllMySat

Download on the App Store